Date String (YYYY-MM-DD hh:mm:ss) UTC,Instrument flags,Ambient pressure (hPa),Sample flow (lpm),Bypass flow (lpm),Sample temperature (°C),Ambient temperature (°C),ASC tube jacket temperature (°C),LED temperature (°C),Box temperature (°C),Sample RH (%),Span deviation,Mass concentration (μg/m³),Mass concentration (μg/m³),Mass concentration (μg/m³)
DateTimeUTC,F1_M11,P_M11,Q1_M11,Q2_M11,T1_M11,T2_M11,T3_M11,T4_M11,T5_M11,U1_M11,ZSPAN_M11,X0_M11,X2_M11,X1_M11
2021-12-04 16:00:00,,0826.9,5.01,0.00,23.7,23.1,00.0,32.6,25.6,16.5,0000.0,0012.00,0003.73,0002.58
2021-12-04 16:01:00,,0826.8,4.99,0.00,23.8,23.1,00.0,32.6,25.6,16.7,0000.0,0012.39,0003.74,0002.58
2021-12-04 16:02:00,,0826.8,5.00,0.00,23.8,23.1,00.0,32.6,25.6,16.8,0000.0,0012.36,0003.75,0002.61
2021-12-04 16:03:00,,0826.8,5.01,0.00,23.8,23.1,00.0,32.7,25.6,16.8,0000.0,0012.37,0003.73,0002.65
2021-12-04 16:04:00,,0826.8,4.98,0.00,23.8,23.1,00.0,32.7,25.7,17.1,0000.0,0012.16,0003.74,0002.67
2021-12-04 16:05:00,,0826.8,5.01,0.00,23.9,23.1,00.0,32.7,25.7,17.1,0000.0,0012.40,0003.74,0002.64
2021-12-04 16:06:00,,0826.8,5.00,0.00,23.9,23.2,00.0,32.7,25.7,17.1,0000.0,0012.55,0003.72,0002.62
2021-12-04 16:07:00,,0826.8,4.99,0.00,23.9,23.2,00.0,32.7,25.7,16.8,0000.0,0011.87,0003.69,0002.64
2021-12-04 16:08:00,,0826.8,4.99,0.00,23.9,23.2,00.0,32.8,25.8,16.9,0000.0,0011.70,0003.72,0002.63
2021-12-04 16:09:00,,0826.8,5.01,0.00,23.9,23.2,00.0,32.8,25.8,16.9,0000.0,0011.42,0003.69,0002.61
2021-12-04 16:10:00,,0826.8,4.99,0.00,24.0,23.3,00.0,32.8,25.8,16.7,0000.0,0010.95,0003.67,0002.59
2021-12-04 16:11:00,,0826.8,5.00,0.00,24.0,23.3,00.0,32.8,25.9,16.8,0000.0,0010.34,0003.60,0002.56
2021-12-04 16:12:00,,0826.8,5.01,0.00,24.0,23.3,00.0,32.8,25.9,17.0,0000.0,0010.40,0003.63,0002.54
2021-12-04 16:13:00,,0826.8,5.00,0.00,24.0,23.3,00.0,32.9,25.9,17.1,0000.0,0009.91,0003.64,0002.51
2021-12-04 16:14:00,,0826.8,4.99,0.00,24.0,23.4,00.0,32.9,26.0,17.0,0000.0,0010.00,0003.64,0002.47
2021-12-04 16:15:00,,0826.8,5.00,0.00,24.1,23.4,00.0,32.9,26.0,17.0,0000.0,0010.07,0003.61,0002.43
2021-12-04 16:16:00,,0826.9,4.99,0.00,24.1,23.4,00.0,32.9,26.0,17.0,0000.0,0010.60,0003.64,0002.43
2021-12-04 16:17:00,,0827.1,5.00,0.00,24.1,23.4,00.0,32.9,26.0,17.3,0000.0,0011.72,0003.66,0002.44
2021-12-04 16:18:00,,0827.1,4.99,0.00,24.1,23.4,00.0,33.0,26.1,17.3,0000.0,0012.54,0003.69,0002.43
2021-12-04 16:19:00,,0827.0,5.00,0.00,24.2,23.4,00.0,33.0,26.1,17.1,0000.0,0012.70,0003.71,0002.43
2021-12-04 16:20:00,,0826.9,5.00,0.00,24.2,23.4,00.0,33.0,26.1,17.0,0000.0,0012.72,0003.74,0002.46
2021-12-04 16:21:00,,0826.9,5.00,0.00,24.2,23.5,00.0,33.0,26.0,17.1,0000.0,0013.15,0003.75,0002.49
2021-12-04 16:22:00,,0826.9,5.01,0.00,24.2,23.5,00.0,33.0,26.0,16.9,0000.0,0013.27,0003.83,0002.54
2021-12-04 16:23:00,,0826.9,4.99,0.00,24.2,23.5,00.0,33.1,26.1,16.9,0000.0,0013.44,0003.86,0002.59
2021-12-04 16:24:00,,0826.9,5.01,0.00,24.2,23.5,00.0,33.1,26.1,16.8,0000.0,0013.81,0003.89,0002.64
2021-12-04 16:25:00,,0826.9,5.00,0.00,24.2,23.5,00.0,33.1,26.1,16.8,0000.0,0013.54,0003.94,0002.68
2021-12-04 16:26:00,,0827.1,5.00,0.00,24.2,23.5,00.0,33.1,26.1,16.7,0000.0,0013.32,0003.95,0002.74
2021-12-04 16:27:00,,0827.2,4.99,0.00,24.3,23.6,00.0,33.1,26.2,16.7,0000.0,0012.68,0003.94,0002.79
2021-12-04 16:28:00,,0827.0,5.01,0.00,24.3,23.6,00.0,33.2,26.2,16.8,0000.0,0012.20,0003.95,0002.81
2021-12-04 16:29:00,,0827.2,5.00,0.00,24.3,23.6,00.0,33.2,26.2,16.7,0000.0,0011.61,0003.96,0002.84
2021-12-04 16:30:00,,0827.0,4.99,0.00,24.3,23.6,00.0,33.2,26.2,16.6,0000.0,0011.56,0003.95,0002.85
2021-12-04 16:31:00,,0827.0,5.00,0.00,24.3,23.6,00.0,33.2,26.3,16.6,0000.0,0011.42,0003.92,0002.86
2021-12-04 16:32:00,,0827.0,5.00,0.00,24.3,23.6,00.0,33.2,26.3,16.6,0000.0,0011.47,0003.96,0002.87
2021-12-04 16:33:00,,0827.0,4.98,0.00,24.4,23.7,00.0,33.2,26.2,16.5,0000.0,0011.63,0003.97,0002.88
2021-12-04 16:34:00,,0827.0,5.01,0.00,24.4,23.7,00.0,33.3,26.3,16.5,0000.0,0012.75,0003.96,0002.89
2021-12-04 16:35:00,,0827.0,4.99,0.00,24.4,23.7,00.0,33.3,26.3,16.6,0000.0,0013.23,0003.96,0002.87
2021-12-04 16:36:00,,0827.1,5.01,0.00,24.4,23.7,00.0,33.3,26.3,16.5,0000.0,0013.12,0003.95,0002.89
2021-12-04 16:37:00,,0827.0,4.99,0.00,24.4,23.7,00.0,33.3,26.3,16.5,0000.0,0013.64,0004.00,0002.91
2021-12-04 16:38:00,,0826.9,5.00,0.00,24.5,23.7,00.0,33.3,26.3,16.5,0000.0,0013.81,0004.02,0002.90
2021-12-04 16:39:00,,0826.9,5.00,0.00,24.5,23.8,00.0,33.3,26.4,16.5,0000.0,0013.72,0004.02,0002.89
2021-12-04 16:40:00,,0827.0,5.00,0.00,24.5,23.8,00.0,33.4,26.4,16.5,0000.0,0013.54,0004.05,0002.88
2021-12-04 16:41:00,,0826.9,4.99,0.00,24.5,23.8,00.0,33.4,26.4,16.5,0000.0,0013.81,0004.04,0002.88
2021-12-04 16:42:00,,0826.9,5.00,0.00,24.5,23.8,00.0,33.4,26.4,16.5,0000.0,0013.56,0004.07,0002.86
2021-12-04 16:43:00,,0826.9,5.01,0.00,24.6,23.9,00.0,33.4,26.4,16.4,0000.0,0014.03,0004.06,0002.84
2021-12-04 16:44:00,,0827.0,4.99,0.00,24.6,23.9,00.0,33.4,26.5,16.4,0000.0,0013.93,0004.01,0002.83
2021-12-04 16:45:00,,0826.9,5.01,0.00,24.6,23.9,00.0,33.4,26.5,16.4,0000.0,0013.24,0004.01,0002.81
2021-12-04 16:46:00,,0827.0,4.99,0.00,24.6,23.9,00.0,33.5,26.5,16.4,0000.0,0012.74,0003.95,0002.80
2021-12-04 16:47:00,,0827.3,5.01,0.00,24.7,23.9,00.0,33.5,26.5,16.4,0000.0,0012.58,0003.91,0002.78
2021-12-04 16:48:00,,0827.0,5.00,0.00,24.7,23.9,00.0,33.5,26.6,16.4,0000.0,0012.29,0003.87,0002.74
2021-12-04 16:49:00,,0826.9,5.00,0.00,24.7,24.0,00.0,33.5,26.6,16.3,0000.0,0012.79,0003.86,0002.71
2021-12-04 16:50:00,,0826.9,4.99,0.00,24.7,24.0,00.0,33.6,26.6,16.3,0000.0,0012.67,0003.85,0002.70
2021-12-04 16:51:00,,0826.9,5.01,0.00,24.7,24.0,00.0,33.6,26.6,16.3,0000.0,0013.40,0003.80,0002.71
2021-12-04 16:52:00,,0826.9,4.99,0.00,24.7,24.1,00.0,33.6,26.6,16.3,0000.0,0013.52,0003.77,0002.70
2021-12-04 16:53:00,,0827.0,5.00,0.00,24.8,24.1,00.0,33.6,26.7,16.3,0000.0,0013.58,0003.75,0002.70
2021-12-04 16:54:00,,0827.3,4.99,0.00,24.8,24.1,00.0,33.6,26.7,16.2,0000.0,0013.14,0003.77,0002.69
2021-12-04 16:55:00,,0827.0,5.00,0.00,24.8,24.1,00.0,33.7,26.7,16.2,0000.0,0013.22,0003.81,0002.70
2021-12-04 16:56:00,,0827.1,5.01,0.00,24.8,24.1,00.0,33.7,26.7,16.1,0000.0,0012.90,0003.87,0002.73
2021-12-04 16:57:00,,0826.9,5.00,0.00,24.9,24.2,00.0,33.7,26.8,16.1,0000.0,0012.39,0003.90,0002.76
2021-12-04 16:58:00,,0827.0,5.00,0.00,24.9,24.2,00.0,33.7,26.8,16.1,0000.0,0012.43,0003.92,0002.78
2021-12-04 16:59:00,,0827.0,5.01,0.00,24.9,24.2,00.0,33.8,26.8,16.2,0000.0,0012.57,0003.94,0002.81
